Weather History for KNBC - November, 2013

Change the Weather History Date:

Monday, November 18, 2013

  Actual Average Record
Temperature  
Mean Temperature 74 °F -  
Max Temperature 82 °F 70 °F 84 °F (1964)
Min Temperature 63 °F 49 °F 30 °F (1949)
Cooling Degree Days 9    
Growing Degree Days 24 (Base 50)    
Moisture  
Dew Point 65 °F    
Average Humidity 80    
Maximum Humidity 96    
Minimum Humidity 46    
Precipitation  
Precipitation 0.00 in - - ()
Sea Level Pressure  
Sea Level Pressure 29.92 in    
Wind  
Wind Speed 8 mph (West)    
Max Wind Speed 13 mph    
Max Gust Speed -    
Visibility 10 miles    
Events      
Averages and records for this station are not official NWS values.
T = Trace of Precipitation, MM = Missing Value Source: NWS Daily Summary

Daily Weather History Graph

Daily Weather History Graph

Search for Another Location

Airport or City:

Trip Planner

Search our weather history database for the weather conditions in past years. The results will help you decide how hot, cold, wet, or windy it might be!

Date:

Astronomy

Nov. 18, 2013 Rise Set
Actual Time 6:55 AM EST 5:20 PM EST
Civil Twilight 6:29 AM EST 5:46 PM EST
Nautical Twilight 5:59 AM EST 6:16 PM EST
Astronomical Twilight 5:30 AM EST 6:45 PM EST
Moon 6:22 PM EST (11/18) 7:42 AM EST (11/18)
Length of Visible Light 11h 17m
Length of Day
10h 25m
Full, 99% of the Moon is Illuminated
Nov 18
Full
Nov 25
Last Quarter
Dec 2
New
Dec 9
First Quarter
Dec 17
Full

Hourly Weather History & Observations

Time (EST) Temp. Heat Index Dew Point Humidity Pressure Visibility Wind Dir Wind Speed Gust Speed Precip Events Conditions
12:56 AM 68.0 °F - 66.9 °F 96% 29.99 in 10.0 mi SW 6.9 mph - N/A   Mostly Cloudy
1:56 AM 69.1 °F - 66.9 °F 93% 29.97 in 10.0 mi SW 6.9 mph - N/A   Overcast
2:56 AM 69.1 °F - 66.9 °F 93% 29.96 in 10.0 mi West 6.9 mph - N/A   Overcast
3:26 AM 69.1 °F - 66.9 °F 93% 29.96 in 10.0 mi SW 6.9 mph - N/A   Overcast
3:36 AM 69.1 °F - 66.9 °F 93% 29.95 in 10.0 mi SW 6.9 mph - N/A   Overcast
3:56 AM 69.1 °F - 66.9 °F 93% 29.94 in 10.0 mi SW 8.1 mph - N/A   Overcast
4:56 AM 70.0 °F - 68.0 °F 93% 29.94 in 10.0 mi West 10.4 mph - N/A   Overcast
5:56 AM 69.1 °F - 66.9 °F 93% 29.94 in 10.0 mi WSW 9.2 mph - N/A   Scattered Clouds
6:13 AM 70.0 °F - 68.0 °F 93% 29.94 in 10.0 mi WSW 9.2 mph - N/A   Mostly Cloudy
6:56 AM 70.0 °F - 68.0 °F 93% 29.94 in 10.0 mi WSW 6.9 mph - N/A   Overcast
7:56 AM 71.1 °F - 68.0 °F 90% 29.95 in 10.0 mi WSW 6.9 mph - N/A   Overcast
8:56 AM 72.0 °F - 69.1 °F 91% 29.96 in 10.0 mi West 4.6 mph - N/A   Overcast
9:56 AM 73.9 °F - 69.1 °F 85% 29.97 in 10.0 mi West 8.1 mph - N/A   Overcast
10:56 AM 77.0 °F - 69.1 °F 76% 29.96 in 10.0 mi West 9.2 mph - N/A   Overcast
11:56 AM 78.1 °F - 69.1 °F 74% 29.94 in 10.0 mi WNW 5.8 mph - N/A   Overcast
12:56 PM 79.0 °F - 68.0 °F 69% 29.90 in 10.0 mi WNW 9.2 mph - N/A   Mostly Cloudy
1:56 PM 82.0 °F 84.9 °F 68.0 °F 62% 29.88 in 10.0 mi West 12.7 mph - N/A   Mostly Cloudy
2:56 PM 82.0 °F 84.9 °F 68.0 °F 62% 29.86 in 10.0 mi WSW 12.7 mph - N/A   Mostly Cloudy
3:56 PM 82.0 °F 84.9 °F 68.0 °F 62% 29.86 in 10.0 mi WSW 6.9 mph - N/A   Mostly Cloudy
4:56 PM 79.0 °F - 68.0 °F 69% 29.86 in 10.0 mi WSW 10.4 mph - N/A   Scattered Clouds
5:56 PM 73.0 °F - 66.9 °F 81% 29.86 in 10.0 mi WSW 5.8 mph - N/A   Scattered Clouds
6:56 PM 72.0 °F - 66.9 °F 84% 29.87 in 10.0 mi SW 6.9 mph - N/A   Scattered Clouds
7:56 PM 73.0 °F - 68.0 °F 84% 29.88 in 10.0 mi NW 6.9 mph - N/A   Scattered Clouds
8:56 PM 72.0 °F - 62.1 °F 71% 29.90 in 10.0 mi NNW 8.1 mph - N/A   Partly Cloudy
9:56 PM 69.1 °F - 53.1 °F 57% 29.92 in 10.0 mi NNW 9.2 mph - N/A   Partly Cloudy
10:56 PM 66.0 °F - 48.0 °F 52% 29.93 in 10.0 mi NNW 9.2 mph - N/A   Partly Cloudy
11:56 PM 63.0 °F - 42.1 °F 46% 29.94 in 10.0 mi NNW 6.9 mph - N/A   Clear